sat.trackr.live / text

‹ back to catalog

AFR-1

NORAD 56964 · 2023-084AJ

PAYLOAD ACTIVE UNKNOWN

§ Identity

Operator
Country
IND
Launch date
2023-06-12
Launch site
AFWTR
Launch vehicle
Mass (kg)
RCS (m²)

External: N2YO · Heavens-Above · Gunter

§ Orbital elements

Epoch: 2026-09-21T21:32:43.249056Z

Period
94.16 min
Inclination
97.6408°
Eccentricity
0.0010364
Mean motion
15.29286050 rev/d
Perigee alt
470.8 km
Apogee alt
485.1 km
Semi-major
6,856.1 km
B*
1.0950e-4
RAAN
44.0514°
Arg perigee
6.5576°
Mean anomaly
353.5797°
Rev number
18,200

§ Raw data

AFR-11 56964U 23084AJ  26264.89772279  .00003034  00000+0  10950-3 0  99952 56964  97.6408  44.0514 0010364   6.5576 353.5797 15.29286050182005

JSON: /api/v1/satellites/56964 · /tle

For live sub-satellite position, see the globe view (requires WebGL).

§ Visibility from observer

Set your observer location to see the next 7 days of passes ≥ 10°. The values pass through the URL so the page stays shareable.

No JS? Fill the form by hand. The geolocation button needs JavaScript.

§ Radio — SatNOGS DB

ModeDescriptionDownlinkUplink
FM Mode S - Transmitter 2.245 GHz
FM Mode U - Transmitter 436.630 MHz
FM Mode X - Transmitter 8.210 GHz

3 transmitters · refreshed weekly from db.satnogs.org